Terminal Aerodrome Forecast
Issued by NWS New Orleans/Baton Rouge, LA

Home | Current Version | Previous Version | Text Only | Print | Product List | Glossary On
Versions: 1 2 3 4 5 6 7 8 9 10 11 12 13
555
FTUS44 KLIX 260617 AAA
TAFBTR
TAF AMD
KBTR 260617Z 2606/2706 05004KT P6SM SKC
     FM261500 13005KT P6SM VCSH SCT025 BKN090
      TEMPO 2617/2621 VRB15G25KT 1SM TSRA BKN025CB BKN090
     FM262200 20004KT P6SM BKN040=

USA.gov is the U.S. government's official web portal to all federal, state and local government web resources and services.